This is the latest recevied weather packets stored in our database for station/object KC9VAF. If no packets are shown the sender has not sent any weather packets the latest 1 day(s).
| Time | Temp. | Humidity | Pressure | Rain* | Wind** | Luminosity | Snow |
|---|---|---|---|---|---|---|---|
| 1778047024 | 6.67° C | 54% | 1012.1 hPa | 0 mm | - | 0 W/m² | - |
| 1778046418 | 6.67° C | 55% | 1012.3 hPa | 0 mm | - | 0 W/m² | - |
| 1778046114 | 6.67° C | 54% | 1012.3 hPa | 0 mm | - | 0 W/m² | - |
| 1778045812 | 6.11° C | 54% | 1012.4 hPa | 0 mm | - | 0 W/m² | - |
| 1778045510 | 6.11° C | 55% | 1012.2 hPa | 0 mm | - | 0 W/m² | - |
| 1778045208 | 6.11° C | 56% | 1012.5 hPa | 0 mm | - | 0 W/m² | - |
| 1778044906 | 6.11° C | 55% | 1012.6 hPa | 0 mm | - | 0 W/m² | - |
| 1778044603 | 6.11° C | 56% | 1012.5 hPa | 0 mm | - | 0 W/m² | - |
| 1778044299 | 5.56° C | 56% | 1012.5 hPa | 0 mm | - | 0 W/m² | - |
| 1778043998 | 5.56° C | 55% | 1012.6 hPa | 0 mm | - | 0 W/m² | - |
| 1778043391 | 6.11° C | 53% | 1012.5 hPa | 0 mm | - | 0 W/m² | - |
| 1778043087 | 6.11° C | 52% | 1012.5 hPa | 0 mm | - | 0 W/m² | - |
| 1778042785 | 6.67° C | 51% | 1012.3 hPa | 0 mm | - | 0 W/m² | - |
| 1778041576 | 7.22° C | 47% | 1012.5 hPa | 0 mm | - | 0 W/m² | - |
| 1778041274 | 7.78° C | 46% | 1012.4 hPa | 0 mm | - | 0 W/m² | - |
| 1778040668 | 7.78° C | 44% | 1012 hPa | 0 mm | - | 0 W/m² | - |
| 1778040367 | 8.33° C | 44% | 1011.9 hPa | 0 mm | - | 0 W/m² | - |
| 1778039760 | 8.33° C | 44% | 1012 hPa | 0 mm | - | 0 W/m² | - |
| 1778039456 | 8.33° C | 43% | 1011.9 hPa | 0 mm | - | 0 W/m² | - |
| 1778039154 | 8.33° C | 43% | 1011.8 hPa | 0 mm | - | 0 W/m² | - |
| 1778038850 | 8.89° C | 43% | 1011.9 hPa | 0 mm | - | 0 W/m² | - |
| 1778038548 | 8.89° C | 43% | 1011.8 hPa | 0 mm | - | 0 W/m² | - |
| 1778037942 | 8.89° C | 43% | 1011.9 hPa | 0 mm | - | 0 W/m² | - |
| 1778037638 | 9.44° C | 42% | 1011.8 hPa | 0 mm | - | 0 W/m² | - |
| 1778037033 | 9.44° C | 42% | 1011.8 hPa | 0 mm | - | 0 W/m² | - |
* Rain latest hour (hover to see other rain measurements)
** Current wind speed in m/s (hover to see current wind gust speed)